Location: Newark
(39.6867°N, 100.6772°W)
Time: 23:32:45
(UTC+00:00)

Altair - All Passes

Search period start: 17 October 2019 00:00
Search period end: 27 October 2019 00:00
Orbit: 1501 x 1683 km, 47.2° (Epoch: 16 October)

Date Brightness Start Highest point End Pass type
(mag) Time Alt. Az. Time Alt. Az. Time Alt. Az.
17 Oct - 00:09:21 10° WNW 00:19:28 89° NNE 00:29:42 10° ESE visible
17 Oct - 02:14:50 10° WNW 02:23:39 36° SW 02:32:29 10° SSE visible
17 Oct - 15:30:31 10° SSE 15:34:38 14° ESE 15:38:49 10° E daylight
17 Oct - 17:28:33 10° SSW 17:37:40 55° SE 17:47:10 10° ENE daylight
17 Oct - 19:32:46 10° WSW 19:42:23 70° NNW 19:52:25 10° ENE daylight
17 Oct - 21:38:45 10° WNW 21:48:27 56° N 21:58:24 10° E daylight
17 Oct - 23:44:08 10° WNW 23:54:15 85° NNE 00:04:28 10° ESE daylight
18 Oct - 01:49:30 10° WNW 01:58:33 39° SW 02:07:37 10° SSE visible
18 Oct - 15:06:50 10° SE 15:09:39 12° ESE 15:12:27 10° ESE daylight
18 Oct - 17:03:35 10° SSW 17:12:33 51° SE 17:21:53 10° ENE daylight
18 Oct - 19:07:32 10° WSW 19:17:08 72° NNW 19:27:10 10° ENE daylight
18 Oct - 21:13:30 10° WNW 21:23:08 56° N 21:33:04 10° E daylight
18 Oct - 23:18:56 10° WNW 23:29:00 81° NNE 23:39:14 10° ESE daylight
19 Oct - 01:24:12 10° WNW 01:33:26 42° SW 01:42:43 10° SSE visible
19 Oct - 16:38:37 10° SSW 16:47:27 47° SE 16:56:36 10° ENE daylight
19 Oct - 18:42:19 10° WSW 18:51:54 75° NNW 19:01:54 10° ENE daylight
19 Oct - 20:48:15 10° WNW 20:57:50 56° N 21:07:45 10° ENE daylight
19 Oct - 22:53:44 10° WNW 23:03:45 78° NNE 23:13:58 10° ESE daylight
20 Oct - 00:58:54 10° WNW 01:08:18 46° SW 01:17:46 10° SSE visible
20 Oct - 16:13:43 10° SSW 16:22:21 43° SE 16:31:18 10° ENE daylight
20 Oct - 18:17:08 10° WSW 18:26:41 79° NNW 18:36:39 10° ENE daylight
20 Oct - 20:22:59 10° WNW 20:32:31 56° N 20:42:24 10° ENE daylight
20 Oct - 22:28:32 10° WNW 22:38:30 75° NNE 22:48:41 10° ESE daylight
21 Oct - 00:33:38 10° WNW 00:43:10 50° SW 00:52:47 10° SSE visible
21 Oct - 02:43:10 10° WSW 02:46:15 12° WSW 02:49:19 10° SW visible
21 Oct - 15:48:50 10° SSW 15:57:16 39° SE 16:06:00 10° ENE daylight
21 Oct - 17:51:56 10° WSW 18:01:28 82° NNW 18:11:25 10° ENE daylight
21 Oct - 19:57:43 10° W 20:07:13 56° N 20:17:05 10° ENE daylight
21 Oct - 22:03:20 10° WNW 22:13:15 72° NNE 22:23:24 10° ESE daylight
22 Oct - 00:08:24 10° WNW 00:18:01 54° SW 00:27:46 10° SSE visible
22 Oct - 02:16:49 10° W 02:21:13 14° WSW 02:25:36 10° SSW visible
22 Oct - 15:24:00 10° SSW 15:32:12 36° SE 15:40:39 10° ENE daylight
22 Oct - 17:26:46 10° WSW 17:36:15 86° NNW 17:46:11 10° ENE daylight
22 Oct - 19:32:27 10° W 19:41:56 56° N 19:51:46 10° ENE daylight
22 Oct - 21:38:07 10° WNW 21:47:59 69° NNE 21:58:07 10° ESE daylight
22 Oct - 23:43:10 10° WNW 23:52:52 58° SW 00:02:43 10° SE daylight
23 Oct - 01:50:52 10° W 01:56:10 16° WSW 02:01:30 10° SSW visible
23 Oct - 14:59:12 10° S 15:07:09 33° SE 15:15:18 10° ENE daylight
23 Oct - 17:01:37 10° WSW 17:11:03 90° SW 17:20:57 10° ENE daylight
23 Oct - 19:07:11 10° W 19:16:38 57° N 19:26:27 10° ENE daylight
23 Oct - 21:12:54 10° WNW 21:22:42 67° NNE 21:32:48 10° E daylight
23 Oct - 23:17:56 10° WNW 23:27:42 62° SW 23:37:39 10° SE daylight
24 Oct - 01:25:05 10° W 01:31:07 18° SW 01:37:11 10° SSW visible
24 Oct - 14:34:27 10° S 14:42:06 30° SE 14:49:56 10° ENE daylight
24 Oct - 16:36:29 10° SW 16:45:53 86° SSE 16:55:42 10° ENE daylight
24 Oct - 18:41:56 10° W 18:51:21 58° N 19:01:09 10° ENE daylight
24 Oct - 20:47:42 10° WNW 20:57:26 65° NNE 21:07:29 10° E daylight
24 Oct - 22:52:43 10° WNW 23:02:32 66° SW 23:12:33 10° SE daylight
25 Oct - 00:59:26 10° W 01:06:04 20° SW 01:12:45 10° SSW visible
25 Oct - 14:09:45 10° S 14:17:03 27° SE 14:24:31 10° ENE daylight
25 Oct - 16:11:21 10° SW 16:20:43 81° SE 16:30:28 10° ENE daylight
25 Oct - 18:16:40 10° W 18:26:04 59° N 18:35:51 10° ENE daylight
25 Oct - 20:22:29 10° WNW 20:32:10 63° NNE 20:42:09 10° E daylight
25 Oct - 22:27:31 10° WNW 22:37:21 71° SW 22:47:26 10° SE daylight
26 Oct - 00:33:53 10° W 00:41:00 22° SW 00:48:11 10° S visible
26 Oct - 13:45:06 10° S 13:52:01 24° SE 13:59:04 10° ENE daylight
26 Oct - 15:46:15 10° SW 15:55:33 77° SE 16:05:14 10° ENE daylight
26 Oct - 17:51:25 10° W 18:00:47 60° NNW 18:10:33 10° ENE daylight
26 Oct - 19:57:16 10° WNW 20:06:54 61° NNE 20:16:49 10° E daylight
26 Oct - 22:02:19 10° WNW 22:12:11 75° SW 22:22:17 10° SE daylight
